Terminal Aerodrome Forecast
Issued by NWS Sterling, VA

Home | Current Version | Previous Version | Text Only | Print | Product List | Glossary On
Versions: 1 2 3 4 5 6 7 8 9 10 11 12
000
FTUS41 KLWX 290500
TAFCHO
TAF
KCHO 290530Z 2906/3006 VRB03KT P6SM SCT090
     FM291400 34007KT P6SM SCT090
     FM292300 VRB03KT P6SM SCT050=

USA.gov is the U.S. government's official web portal to all federal, state and local government web resources and services.